Regional Weather Roundup
Issued by NWS

Home | Current Version | Previous Version | Text Only | Print | Product List | Glossary On
Versions: 1 2 3 4 5 6 7 8 9 10 11 12 13 14 15 16 17 18 19 20 21 22 23 24 25 26 27 28 29 30 31 32 33 34 35 36 37 38 39 40 41 42 43 44 45 46 47 48 49 50
000
ASUS43 KTOP 191408
RWRKS

WEATHER ROUNDUP FOR KANSAS
NATIONAL WEATHER SERVICE GOODLAND KS
800 AM CST MON FEB 19 2018

NOTE:  "FAIR" INDICATES FEW OR NO CLOUDS BELOW 12,000 FEET WITH NO
SIGNIFICANT WEATHER AND/OR OBSTRUCTIONS TO VISIBILITY.

KSZ001>006-013>018-027>032-041>047-191500-
NORTHWEST KANSAS

CITY           SKY/WX    TMP DP  RH WIND       PRES   REMARKS
GOODLAND       FLURRIES  13  10  88 N17       29.77S WCI  -4
HILL CITY      CLOUDY    20  16  84 N17       29.83R WCI   5
RUSSELL        CLOUDY    23  20  88 N17       29.79R WCI   9
$$

KSZ061>065-074>080-084>089-191500-
SOUTHWEST KANSAS

CITY           SKY/WX    TMP DP  RH WIND       PRES   REMARKS
DODGE CITY     CLOUDY    23  32 100 N21G30    29.77R WCI   8
ELKHART        CLOUDY    26  25  96 NE15      29.76R WCI  14
GARDEN CITY    CLOUDY    20  17  88 N16       29.78R WCI   6
GREAT BEND     CLOUDY    24  21  88 N20       29.80R WCI  10
LIBERAL        CLOUDY    25  21  85 N16       29.77R WCI  12
PRATT          CLOUDY    26  24  89 N22       29.77R WCI  12
$$

KSZ066>073-081>083-090>101-191500-
SOUTHEAST KANSAS

CITY           SKY/WX    TMP DP  RH WIND       PRES   REMARKS
CHANUTE        CLOUDY    64  60  87 S17G31    29.71R
COFFEYVILLE    CLOUDY    64  60  87 S23G32    29.71S
HUTCHINSON     CLOUDY    31  28  89 N13       29.76R WCI  21
MEDICINE LODGE   N/A     32  27  81 N18G29    29.75R WCI  20
NEWTON         CLOUDY    33  28  81 NW21      29.74R WCI  21
PARSONS        CLOUDY    64  61  90 S20G31    29.71S
WICHITA INTL   CLOUDY    38  31  76 N21G26    29.73R WCI  28
WICHITA JABRA  CLOUDY    37  32  82 NW18      29.73R WCI  27
WICHITA MCCONL CLOUDY    39  31  72 NW13G21   29.72R WCI  31
WINFIELD       CLOUDY    64  61  90 S17G29    29.68R
$$

KSZ007>012-019>026-033>040-048>060-102>105-191500-
NORTHEAST KANSAS

CITY           SKY/WX    TMP DP  RH WIND       PRES   REMARKS
CONCORDIA      CLOUDY    21  20  96 N16G26    29.79R WCI   7
EMPORIA        CLOUDY    46  40  79 W14G22    29.69R
LAWRENCE       CLOUDY    65  60  84 S20G28    29.63R
MANHATTAN      CLOUDY    33  29  85 N8        29.75R
MARYSVILLE     CLOUDY    27  27 100 N21G26    29.74R WCI  13
OLATHE IND     CLOUDY    64  60  87 S21G29    29.66R
OLATHE EXE     CLOUDY    63  59  87 SW17G25   29.66R
SALINA         CLOUDY    29  26  89 N18       29.79R WCI  16
TOPEKA BILLARD CLOUDY    44  41  89 W14       29.68R
TOPEKA FORBES  LGT RAIN  46  42  86 NW23G32   29.67R
$$




USA.gov is the U.S. government's official web portal to all federal, state and local government web resources and services.